This demonstration page uses our WeatherBlox Daily Observations layout. Learn more.

Left ArrowRight Arrow

Hourly Observations for September 16, 2019

Temp ( °F °C ) Dew Point ( °F °C ) Humidity (%) Winds ( mph kmh ) Pressure ( in mb ) Visibility ( mi km ) Precip ( " mm )
12:51 am 00:51 Mostly Clear 69 20.6 65 18.3 87 87 SE 9 15 29.95 1014 10 16 0.00 0.00
1:51 am 01:51 Clear 68 20 64 17.8 87 87 SE 6 9 29.94 1014 10 16 0.00 0.00
2:51 am 02:51 Clear 67 19.4 63 17.2 87 87 SE 6 9 29.93 1014 10 16 0.00 0.00
3:51 am 03:51 Clear 66 18.9 64 17.8 93 93 ESE 6 9 29.93 1014 10 16 0.00 0.00
4:51 am 04:51 Clear 66 18.9 63 17.2 90 90 S 6 9 29.93 1014 10 16 0.00 0.00
5:51 am 05:51 Clear 65 18.3 63 17.2 93 93 S 8 13 29.95 1014 10 16 0.00 0.00
6:51 am 06:51 Sunny 67 19.4 63 17.2 87 87 VRB 3 6 29.96 1015 10 16 0.00 0.00
7:51 am 07:51 Sunny 69 20.6 64 17.8 84 84 SE 9 15 29.98 1015 10 16 0.00 0.00
8:51 am 08:51 Sunny 74 23.3 63 17.2 69 69 SSE 10 17 29.98 1015 10 16 0.00 0.00
9:51 am 09:51 Sunny 77 25 62 16.7 60 60 SSE 10 17 29.98 1015 10 16 0.00 0.00
10:51 am 10:51 Sunny 79 26.1 62 16.7 56 56 SE 5 7 29.95 1014 10 16 0.00 0.00
11:51 am 11:51 Sunny 82 27.8 62 16.7 51 51 undefined N/A 29.92 1013 10 16 0.00 0.00
12:51 pm 12:51 Sunny 84 28.9 61 16.1 46 46 SSW 7 11 29.89 1012 10 16 0.00 0.00
1:51 pm 13:51 Sunny 86 30 58 14.4 39 39 S 3 6 29.85 1011 10 16 0.00 0.00
2:51 pm 14:51 Sunny 87 30.6 56 13.3 35 35 W 7 11 29.81 1010 10 16 0.00 0.00
3:51 pm 15:51 Sunny 86 30 54 12.2 33 33 SW 6 9 29.80 1009 10 16 0.00 0.00
4:51 pm 16:51 Sunny 86 30 55 12.8 35 35 WSW 5 7 29.79 1009 10 16 0.00 0.00
5:51 pm 17:51 Sunny 85 29.4 55 12.8 36 36 W 7 11 29.81 1010 10 16 0.00 0.00
6:17 pm 18:17 Sunny 77 25 54 12.2 45 45 W 26 43 29.78 1009 10 16 0.00 0.00
6:51 pm 18:51 Clear 73 22.8 57 13.9 57 57 NW 24 39 29.91 1013 10 16 0.00 0.00
7:16 pm 19:16 Clear with Nearby Thunderstorms 72 22.2 55 12.8 55 55 NW 20 31 29.88 1012 10 16 0.00 0.00
7:51 pm 19:51 Mostly Cloudy with Nearby Thunderstorms 71 21.7 59 15 66 66 WNW 26 43 29.93 1014 10 16 0.00 0.00
8:03 pm 20:03 Cloudy with Thunderstorms 70 21.1 60 15.6 71 71 WNW 22 35 29.93 1013 10 16 0.00 0.00
8:18 pm 20:18 Cloudy with Light Rain 68 20 62 16.7 81 81 WNW 13 20 29.96 1014 10 16 0.00 0.00
8:51 pm 20:51 Cloudy 68 20 60 15.6 76 76 WNW 15 24 29.94 1014 10 16 0.01 0.25
9:51 pm 21:51 Mostly Cloudy 68 20 62 16.7 81 81 E 6 9 29.89 1012 10 16 0.00 0.00
10:51 pm 22:51 Clear 69 20.6 60 15.6 73 73 ESE 5 7 29.91 1013 10 16 0.00 0.00
11:51 pm 23:51 Mostly Clear 67 19.4 61 16.1 81 81 SE 3 6 29.91 1013 10 16 0.00 0.00

Powered by AerisWeather